Arcata, CA

1:21 AM PST on February 07, 2016 (GMT -0800)
Arcata

Weather History for KACV - December, 2013

Change the Weather History Date:

Tuesday, December 3, 2013

  Actual Average Record
Temperature  
Mean Temperature 42 °F -  
Max Temperature 50 °F 54 °F 64 °F (1996)
Min Temperature 32 °F 40 °F 30 °F (2011)
Degree Days  
Heating Degree Days 24    
Moisture  
Dew Point 35 °F    
Average Humidity 75    
Maximum Humidity 89    
Minimum Humidity 54    
Precipitation  
Precipitation 0.00 in - - ()
Sea Level Pressure  
Sea Level Pressure 30.05 in    
Wind  
Wind Speed 6 mph (NNE)    
Max Wind Speed 17 mph    
Max Gust Speed 25 mph    
Visibility 10 miles    
Events      
Averages and records for this station are not official NWS values.
T = Trace of Precipitation, MM = Missing Value Source: NWS Daily Summary

Daily Weather History Graph

Daily Weather History Graph

Search for Another Location

Airport or City:

Trip Planner

Search our weather history database for the weather conditions in past years. The results will help you decide how hot, cold, wet, or windy it might be!

Date:

Astronomy

Dec. 03, 2013 Rise Set
Actual Time 7:24 AM PST 4:48 PM PST
Civil Twilight 6:53 AM PST 5:19 PM PST
Nautical Twilight 6:19 AM PST 5:53 PM PST
Astronomical Twilight 5:46 AM PST 6:26 PM PST
Moon 7:59 AM PST (12/3) 5:58 PM PST (12/3)
Length of Visible Light 10h 25m
Length of Day
9h 24m
New Moon, 1% of the Moon is Illuminated
Dec 3
New Moon
Dec 9
First Quarter
Dec 17
Full
Dec 25
Last Quarter
Jan 1
New

Hourly Weather History & Observations

Time (PST) Temp. Windchill Dew Point Humidity Pressure Visibility Wind Dir Wind Speed Gust Speed Precip Events Conditions
12:53 AM 42.1 °F 40.2 °F 37.9 °F 85% 30.05 in 10.0 mi East 3.5 mph - N/A   Clear
1:53 AM 42.1 °F - 39.0 °F 89% 30.05 in 10.0 mi Calm Calm - N/A   Clear
2:53 AM 41.0 °F - 37.9 °F 89% 30.05 in 8.0 mi Calm Calm - N/A   Clear
3:53 AM 41.0 °F 39.0 °F 37.9 °F 89% 30.04 in 10.0 mi ENE 3.5 mph - N/A   Clear
4:53 AM 41.0 °F 37.1 °F 37.0 °F 86% 30.04 in 10.0 mi ENE 5.8 mph - N/A   Clear
5:53 AM 39.0 °F 36.8 °F 36.0 °F 89% 30.04 in 10.0 mi NE 3.5 mph - N/A   Clear
6:53 AM 39.9 °F 35.1 °F 33.1 °F 77% 30.06 in 10.0 mi NE 6.9 mph - N/A   Clear
7:53 AM 39.0 °F 34.8 °F 32.0 °F 76% 30.07 in 10.0 mi NE 5.8 mph - N/A   Clear
8:53 AM 43.0 °F 39.5 °F 34.0 °F 71% 30.07 in 10.0 mi NNE 5.8 mph - N/A   Clear
9:53 AM 46.0 °F 41.4 °F 35.1 °F 66% 30.09 in 10.0 mi North 9.2 mph - N/A   Clear
10:53 AM 48.0 °F - 33.1 °F 56% 30.08 in 10.0 mi NNW 11.5 mph - N/A   Clear
11:53 AM 48.0 °F - 34.0 °F 58% 30.06 in 10.0 mi North 13.8 mph - N/A   Clear
12:53 PM 48.9 °F - 33.1 °F 54% 30.04 in 10.0 mi North 16.1 mph 25.3 mph N/A   Clear
1:53 PM 50.0 °F - 34.0 °F 54% 30.04 in 10.0 mi North 17.3 mph 24.2 mph N/A   Clear
2:53 PM 48.9 °F - 35.1 °F 59% 30.04 in 10.0 mi North 17.3 mph 25.3 mph N/A   Clear
3:53 PM 48.0 °F - 35.1 °F 61% 30.04 in 10.0 mi North 12.7 mph 24.2 mph N/A   Clear
4:53 PM 46.0 °F 40.2 °F 36.0 °F 68% 30.05 in 10.0 mi North 12.7 mph 21.9 mph N/A   Clear
5:53 PM 45.0 °F 39.7 °F 37.0 °F 74% 30.05 in 10.0 mi North 10.4 mph - N/A   Clear
6:53 PM 44.1 °F 39.5 °F 37.0 °F 76% 30.05 in 10.0 mi North 8.1 mph - N/A   Clear
7:53 PM 42.1 °F 37.7 °F 36.0 °F 79% 30.06 in 10.0 mi North 6.9 mph - N/A   Clear
8:53 PM 37.9 °F 35.5 °F 34.0 °F 86% 30.06 in 10.0 mi East 3.5 mph - N/A   Clear
9:53 PM 36.0 °F 32.1 °F 32.0 °F 86% 30.06 in 10.0 mi ESE 4.6 mph - N/A   Clear
10:53 PM 33.1 °F - 30.0 °F 89% 30.06 in 10.0 mi Calm Calm - N/A   Clear
11:53 PM 32.0 °F 26.4 °F 28.9 °F 88% 30.07 in 10.0 mi East 5.8 mph - N/A   Clear